Starlink 3541

operational
NORAD ID: 51854 Int'l Des: 2022-022 Owner: SPXS Country: US Constellation: starlink
LEOCIRCULAR

Starlink 3541について

説明を読み込み中...

リアルタイム位置

3D地球を読み込み中...

次回通過

高度履歴

Altitude vs Time

uPlot chart will show altitude changes over time

軌道要素

1 51854U 22022C 25305.54199073 -.00001269 00000-0 -61641-4 0 9996
2 51854 53.2186 234.3968 0001519 91.5997 268.5169 15.08834695203675
Epoch: Nov 1, 2025 • Age: 15 hours

現在のステータス

高度 541.9 km
速度 7.60 km/s
衛星直下点 36.63°N, 170.66°E
打ち上げ日 Mar 3, 2022
運用期間 3.6 years
タイプ internet

技術仕様

分類 Payload
質量 297.00 kg
乾燥質量 275.00 kg
総質量 297.00 kg
長さ 0.20 m
直径 2.80 m
スパン 9.00 m
形状 Box + pan
製造者 SPXS
バスタイプ Starlink
フェーズステータス In Orbit
所有者/国 SPXS/US

大規模コンステレーション

Loading constellations...